Content
SEND FEEDBACK

Daily
Averages
Monthly
Summary
Canada

VANCOUVER - CITY HALL, BRITISH COLUMBIA


Home > North America > Canada > British Columbia
Elevation: 283 feet     Latitude: 49 17N     Longitude: 123 07W

WEATHER
 
SELECT A DAY
Number of Records: 172,385;   Date Range: 4/23/95 - 10/20/14
 
SHARE

PRINT THIS DATA

[ ← Previous Day ]
WEATHER ALMANAC - APRIL 27, 2013
[ Next Day → ]
[ °C ]   °F
Weather ElementAverageHighLow
Temperature49.9 °F52.3 °F (6:00 am)46 °F (11:00 pm)
Dewpoint43.2 °F48.2 °F (4:00 pm)37.2 °F (7:00 am)
Humidity77.8 %93 % (11:00 pm)51 % (5:00 am)
Barometer30.14 in30.17 in (1:00 am)30.11 in (7:00 am)
Wind Speed3.1 mph4.6 mph (6:00 am)
Weather ElementAverage
Wind DirectionENE (56.9 °)

Weather ElementTotal
Precipitation0.18 in
Heating Degree Days15.9 (Base 65)
Averaged from 26 records on April 27, 2013
WEATHER CONDITIONS BREAKOUT
WIND DIRECTION BREAKOUT
WEATHER BY HOUR - APRIL 27, 2013
[ °C ]   °F
Local TimeTemperatureDewpointHumidityBarometerVisibilityWind DirectionWind SpeedGust SpeedPrecipitationEventsConditions
1:00 AM50.7 °F39.7 °F66 %30.17 inNNE (30°)2.3 mph
2:00 AM50.4 °F40.1 °F68 %30.17 inNE (40°)2.3 mph
3:00 AM50.5 °F39.6 °F66 %30.16 inENE (70°)3.5 mph
4:00 AM50.2 °F40.3 °F69 %30.14 inNE (40°)2.3 mph
5:00 AM51.0 °F38.0 °F51 %30.12 inENE (70°)3.5 mph
5:00 AM50.9 °F38.3 °F62 %30.12 inENE (70°)3.5 mph
6:00 AM52.3 °F37.6 °F57 %30.12 inEast (80°)4.6 mph
7:00 AM52.0 °F37.2 °F57 %30.11 inEast (80°)4.6 mph
8:00 AM51.1 °F38.8 °F63 %30.11 inNE (50°)4.6 mph
9:00 AM50.7 °F38.3 °F62 %30.13 inEast (80°)3.5 mph
10:00 AM49.5 °F40.5 °F71 %30.14 inEast (80°)3.5 mph0.01 in
11:00 AM47.0 °F44.0 °F84 %30.14 inEast (80°)4.6 mph
11:00 AM47.5 °F43.7 °F87 %30.14 inEast (80°)4.6 mph0.03 in
12:00 PM47.8 °F44.6 °F89 %30.16 inEast (80°)4.6 mph0.06 in
1:00 PM48.2 °F45.5 °F90 %30.15 inENE (70°)3.5 mph0.05 in
2:00 PM49.3 °F47.1 °F92 %30.15 inNE (40°)2.3 mph0.02 in
3:00 PM50.5 °F47.8 °F90 %30.15 inNE (40°)1.2 mph
4:00 PM51.3 °F48.2 °F89 %30.14 inNE (50°)1.2 mph
5:00 PM51.0 °F48.0 °F85 %30.14 inEast (80°)2.3 mph
5:00 PM51.1 °F47.8 °F89 %30.14 inEast (80°)2.3 mph
6:00 PM51.1 °F47.5 °F87 %30.13 inNE (40°)2.3 mph0.01 in
7:00 PM51.4 °F47.8 °F87 %30.13 inNNE (20°)2.3 mph
8:00 PM50.5 °F47.1 °F88 %30.13 inNorth (10°)3.5 mph
9:00 PM49.6 °F46.6 °F89 %30.14 inEast (80°)3.5 mph
11:00 PM46.0 °F44.0 °F92 %30.15 inNNE (20°)2.3 mph
11:00 PM46.2 °F44.4 °F93 %30.15 inNNE (20°)2.3 mph
Hourly data recorded from CWWA, located miles away from Vancouver - City Hall, British Columbia







STORIES FROM OUR PARTNERS